KB3KAV Weather Reports


Display with metric or nautical units.
time (UTC)temp
F
wind
direction
speed
MPH
gust
MPH
rain 1hr
in
rain 24hr
in
rain mn
in
humidity
%
barometer
mb
20260902160811 69 80 1.0 2.0 0.00 0.03 0.03 95 1048.3
20260902155809 69 82 0.0 0.0 0.00 0.03 0.03 95 1048.4
20260902154809 69 84 0.0 0.0 0.07 0.03 0.03 95 1048.4
20260902153809 69 80 1.0 1.0 0.12 0.03 0.03 95 1048.2
20260902152806 70 90 0.0 0.0 0.07 0.01 0.01 95 1048.4
20260902151802 70 80 1.0 1.0 0.00 0.00 0.00 94 1048.3
20260902150757 70 60 1.0 2.0 0.00 0.00 0.00 95 1048.4
20260902145753 70 85 1.0 1.0 0.00 0.00 0.00 95 1048.5
20260902144749 70 92 0.0 0.0 0.00 0.00 0.00 95 1048.4
20260902143746 70 80 0.0 1.0 0.00 0.00 0.00 95 1048.4
20260902142742 69 88 0.0 0.0 0.00 0.00 0.00 95 1048.4
20260902141738 69 85 1.0 1.0 0.00 0.00 0.00 95 1048.6
20260902140734 70 85 1.0 1.0 0.00 0.00 0.00 95 1048.5
20260902135734 70 94 1.0 1.0 0.00 0.00 0.00 95 1048.5
20260902134730 70 89 0.0 1.0 0.00 0.00 0.00 95 1048.2
20260902133726 70 103 0.0 0.0 0.00 0.00 0.00 95 1048.4
20260902132727 69 103 0.0 0.0 0.00 0.00 0.00 95 1048.3
20260902131723 69 96 0.0 0.0 0.00 0.00 0.00 95 1048.1
20260902130720 69 87 0.0 0.0 0.00 0.00 0.00 95 1048.3
20260902125716 69 104 0.0 0.0 0.00 0.00 0.00 95 1047.7
20260902124715 68 101 0.0 0.0 0.00 0.00 0.00 95 1047.9
20260902123710 68 102 0.0 0.0 0.00 0.00 0.00 95 1047.7
20260902122705 68 100 0.0 0.0 0.00 0.00 0.00 95 1047.5
20260902121701 67 99 0.0 0.0 0.00 0.00 0.00 95 1047.1
20260902120658 67 99 0.0 0.0 0.00 0.00 0.00 95 1047.1
20260902115654 67 95 0.0 0.0 0.00 0.00 0.00 95 1047.3
20260902114652 67 97 0.0 0.0 0.00 0.00 0.00 95 1047.2
20260902113648 67 97 0.0 0.0 0.00 0.00 0.00 95 1047.4
20260902112643 66 97 0.0 0.0 0.00 0.00 0.00 95 1047.5
20260902111641 66 98 0.0 0.0 0.00 0.00 0.00 95 1047.5
20260902110639 66 97 0.0 0.0 0.00 0.00 0.00 95 1047.5
20260902105634 66 97 0.0 0.0 0.00 0.00 0.00 95 1047.6
20260902104630 66 97 0.0 0.0 0.00 0.00 0.00 95 1047.6
20260902103631 66 101 0.0 0.0 0.00 0.00 0.00 95 1047.6
20260902102628 66 96 0.0 0.0 0.00 0.00 0.00 95 1047.5
20260902101627 66 107 0.0 0.0 0.00 0.00 0.00 95 1047.6
20260902100626 66 104 0.0 0.0 0.00 0.00 0.00 95 1047.4
20260902095626 66 104 0.0 0.0 0.00 0.00 0.00 95 1047.4
20260902094621 66 104 0.0 0.0 0.00 0.00 0.00 95 1047.1
20260902093617 66 106 0.0 0.0 0.00 0.00 0.00 95 1047.2
20260902092612 66 106 0.0 0.0 0.00 0.00 0.00 95 1047.3
20260902091608 66 106 0.0 0.0 0.00 0.00 0.00 95 1047.3
20260902090607 66 106 0.0 0.0 0.00 0.00 0.00 95 1047.0
20260902085605 66 106 0.0 0.0 0.00 0.00 0.00 95 1047.1
20260902084603 66 105 0.0 0.0 0.00 0.00 0.00 95 1047.0
20260902083559 66 110 0.0 0.0 0.00 0.00 0.00 95 1047.0
20260902082555 66 110 0.0 0.0 0.00 0.00 0.00 95 1046.9
20260902081553 66 110 0.0 0.0 0.00 0.00 0.00 95 1047.0
20260902080548 66 110 0.0 0.0 0.00 0.00 0.00 95 1046.9
20260902075544 66 110 0.0 0.0 0.00 0.00 0.00 95 1046.6
20260902074541 66 111 0.0 0.0 0.00 0.00 0.00 95 1046.7
20260902073537 66 112 1.0 1.0 0.00 0.00 0.00 95 1046.7
20260902072535 67 106 0.0 0.0 0.00 0.00 0.00 95 1046.7
20260902071531 67 103 0.0 0.0 0.00 0.00 0.00 95 1046.5
20260902070528 67 98 0.0 0.0 0.00 0.00 0.00 95 1046.7
20260902065528 67 98 0.0 0.0 0.00 0.00 0.00 95 1046.6
20260902064526 67 111 0.0 0.0 0.00 0.00 0.00 95 1046.8
20260902063520 67 97 0.0 0.0 0.00 0.00 0.00 95 1046.9
20260902062520 67 91 0.0 0.0 0.00 0.00 0.00 95 1047.1
20260902061516 67 90 0.0 0.0 0.00 0.00 0.00 95 1047.1
20260902060514 67 94 0.0 0.0 0.00 0.00 0.00 95 1046.9
20260902055512 67 94 0.0 1.0 0.00 0.00 0.00 95 1046.9
20260902054507 67 94 0.0 1.0 0.00 0.00 0.00 95 1046.9
20260902053503 67 95 0.0 0.0 0.00 0.00 0.00 95 1047.0
20260902052503 67 107 0.0 0.0 0.00 0.00 0.00 95 1046.9
20260902051459 67 108 0.0 0.0 0.00 0.00 0.00 95 1047.0
20260902050458 67 108 0.0 0.0 0.00 0.00 0.00 95 1046.6
20260902045455 67 120 2.0 2.0 0.00 0.00 0.00 95 1046.5
20260902044451 67 88 0.0 1.0 0.00 0.00 0.00 95 1046.7
20260902043448 67 86 0.0 0.0 0.00 0.00 0.00 95 1046.4
20260902042449 68 87 0.0 0.0 0.00 0.00 0.00 95 1046.4
20260902041444 68 98 0.0 0.0 0.00 0.00 0.00 95 1046.6
20260902040444 68 88 1.0 1.0 0.00 0.00 0.00 95 1046.5
20260902035444 68 106 1.0 1.0 0.00 0.29 0.29 95 1046.4
20260902034444 67 90 1.0 1.0 0.00 0.29 0.29 95 1046.9
20260902033444 67 87 0.0 0.0 0.00 0.29 0.29 95 1046.4
20260902032443 67 72 1.0 2.0 0.00 0.29 0.29 95 1045.9
20260902031439 67 102 1.0 1.0 0.00 0.29 0.29 95 1045.6
20260902030435 67 102 0.0 0.0 0.00 0.29 0.29 95 1045.7
20260902025430 68 98 1.0 2.0 0.00 0.29 0.29 95 1045.8
20260902024426 67 58 1.0 2.0 0.00 0.29 0.29 95 1045.8
20260902023423 68 103 0.0 0.0 0.00 0.29 0.29 95 1045.3
20260902022423 68 103 0.0 0.0 0.00 0.29 0.29 95 1045.4
20260902021419 68 103 0.0 0.0 0.00 0.29 0.29 95 1045.3
20260902020416 68 115 0.0 0.0 0.00 0.29 0.29 95 1045.2
20260902015413 68 106 0.0 0.0 0.00 0.29 0.29 95 1045.1
20260902014411 68 89 0.0 0.0 0.00 0.29 0.29 95 1045.2
20260902013411 68 95 0.0 0.0 0.00 0.29 0.29 95 1045.3
20260902012408 69 96 0.0 0.0 0.00 0.29 0.29 95 1045.1
20260902011404 69 96 0.0 0.0 0.00 0.29 0.29 95 1045.2
20260902010359 69 91 0.0 0.0 0.00 0.29 0.29 95 1045.5
20260902005358 69 90 0.0 0.0 0.00 0.29 0.29 95 1045.5
20260902004353 69 102 1.0 1.0 0.00 0.29 0.29 95 1046.0
20260902003349 69 105 0.0 0.0 0.05 0.29 0.29 95 1045.5
20260902002344 69 105 1.0 1.0 0.05 0.29 0.29 95 1044.6
20260902001341 69 109 1.0 1.0 0.00 0.28 0.28 95 1044.1
20260902000337 69 88 0.0 0.0 0.00 0.28 0.28 95 1043.8
20260901235330 70 99 0.0 1.0 0.00 0.28 0.28 95 1043.9
20260901234325 70 85 0.0 0.0 0.00 0.28 0.28 95 1043.8
20260901233322 70 104 0.0 1.0 0.00 0.28 0.28 95 1044.1
20260901232318 71 93 0.0 1.0 0.00 0.28 0.28 95 1044.0
20260901231317 71 82 2.0 2.0 0.00 0.28 0.28 95 1043.7
20260901230312 72 109 1.0 1.0 0.00 0.28 0.28 95 1044.2
20260901225307 73 93 0.0 1.0 0.00 0.28 0.28 94 1044.3
20260901224305 74 88 1.0 1.0 0.07 0.28 0.28 95 1044.3
20260901223301 75 137 4.0 6.0 0.35 0.27 0.27 95 1044.6
20260901222300 76 96 0.0 0.0 0.52 0.22 0.22 95 1044.0
20260901221256 77 109 1.0 1.0 0.54 0.13 0.13 95 1044.4
20260901220255 77 50 2.0 2.0 0.00 0.04 0.04 94 1043.8
20260901215253 78 96 0.0 0.0 0.00 0.04 0.04 93 1042.4
20260901214251 78 99 0.0 1.0 0.00 0.04 0.04 93 1043.1
20260901213246 79 86 0.0 0.0 0.00 0.04 0.04 92 1042.7
20260901212242 79 100 0.0 0.0 0.00 0.04 0.04 91 1043.1
20260901211239 80 76 1.0 1.0 0.00 0.04 0.04 90 1042.8
20260901210236 82 87 0.0 0.0 0.00 0.04 0.04 84 1043.3
20260901205231 84 84 1.0 1.0 0.00 0.04 0.04 81 1042.9
20260901204229 85 302 5.0 7.0 0.00 0.04 0.04 74 1042.5
20260901203224 87 113 2.0 2.0 0.00 0.04 0.04 74 1042.2
20260901202219 87 131 3.0 3.0 0.00 0.04 0.04 74 1042.5
20260901201214 88 160 2.0 3.0 0.00 0.04 0.04 70 1042.4
20260901200209 86 331 5.0 7.0 0.00 0.04 0.04 73 1042.9
20260901195207 86 251 4.0 5.0 0.00 0.04 0.04 72 1043.1
20260901194204 86 92 1.0 1.0 0.00 0.04 0.04 73 1043.2
20260901193200 86 289 4.0 5.0 0.00 0.04 0.04 72 1043.3
20260901192155 86 77 3.0 3.0 0.00 0.04 0.04 74 1043.2
20260901191153 85 333 2.0 2.0 0.00 0.04 0.04 77 1043.3
20260901190154 85 17 3.0 3.0 0.00 0.04 0.04 78 1043.6
20260901185151 85 85 2.0 2.0 0.00 0.04 0.04 78 1043.6
20260901184148 85 325 3.0 3.0 0.00 0.04 0.04 77 1043.7
20260901183143 84 329 6.0 8.0 0.00 0.04 0.04 77 1043.8
20260901182138 84 270 4.0 5.0 0.00 0.04 0.04 80 1043.9
20260901181133 83 141 3.0 6.0 0.00 0.04 0.04 80 1043.9
20260901180133 83 117 2.0 2.0 0.00 0.04 0.04 81 1043.6
20260901175132 82 80 2.0 2.0 0.00 0.04 0.04 82 1043.6
20260901174130 81 91 3.0 5.0 0.00 0.04 0.04 82 1044.0
20260901173126 82 56 3.0 3.0 0.00 0.04 0.04 83 1043.8
20260901172125 81 34 2.0 2.0 0.00 0.04 0.04 83 1043.5
20260901171125 80 90 1.0 1.0 0.00 0.04 0.04 86 1043.7
20260901170125 80 95 1.0 2.0 0.00 0.04 0.04 86 1043.9
20260901165125 80 34 2.0 3.0 0.00 0.04 0.04 85 1044.0
20260901164122 80 129 1.0 2.0 0.00 0.04 0.04 86 1044.3
20260901163116 77 100 0.0 1.0 0.00 0.04 0.04 91 1044.0
20260901162111 77 103 1.0 1.0 0.00 0.04 0.04 90 1044.4
20260901161110 77 101 0.0 0.0 0.00 0.04 0.04 91 1044.6